Weather in Moneghetti

Monaco     43°43′58″N   7°25′03″E
temp.,
°C
wind,
m/s
gust,
m/s
humid.,
%
clouds,
%
prec.,
mm/h
press.,
hPa
HPBL,
m
20 april, tue
tue2023:00+12w336673 0.0 1016400
02:00+12n116380 0.0 1016161
05:00+12nne226438 0.0 1015182
08:00+12nne11625 0.0 1016211
11:00+12ese22681 0.0 1016294
14:00+12ssw33690 0.1 1016463
17:00+13sw446889 0.0 1015551
20:00+13sw3371100 0.0 1015587
21 april, wed
wed2123:00+13ssw0171100 0.0 1016468
02:00+13ene2273100 0.0 1017399
05:00+12ne3377100 0.2 1016327
08:00+12ene3378100 0.9 1017321
11:00+12e3378100 1.4 1018232
14:00+13ese3475100 2.4 1018430
17:00+13se337190 0.4 1017458
20:00+13se117122 0.6 1017395
22 april, thu
thu2223:00+13n22715 0.1 1018141
02:00+12nne22655 0.1 1017183
05:00+12n32614 0.0 1017191
08:00+12ene46666 0.0 1018416
11:00+13e77726 0.0 1018636
14:00+13e66688 0.1 1018558
17:00+13ese44675 0.0 1017354
20:00+13ene22666 0.0 1017221
23 april, fri
fri2323:00+14n22683 0.0 101861
02:00+13ne22660 0.0 1018117
05:00+13n22600 0.0 1017153
08:00+13n22550 0.0 1018120
11:00+14ese22580 0.0 1019180
14:00+13ese12681 0.0 1019160
17:00+14nw10639 0.0 1018120
20:00+16wnw11606 0.0 101861
24 april, sat
sat2423:00+16nnw33635 0.0 101930
02:00+15nne33640 0.0 102036
05:00+15nnw33660 0.0 102039
08:00+15ne22640 0.0 102048
11:00+14s33780 0.0 1022167
14:00+14ssw12760 0.0 1021236
17:00+15wsw23680 0.0 1019170
20:00+16wsw34701 0.0 101892